Location: Unspecified
(41.5516°N, 88.1098°W)
Time: 00:59:20
(UTC-05:00)

Cosmos 2058 - Visible Passes

Search period start: 28 June 2016 00:00
Search period end: 08 July 2016 00:00
Orbit: 563 x 587 km, 82.5° (Epoch: 27 June)

Date Brightness Start Highest point End Pass type
(mag) Time Alt. Az. Time Alt. Az. Time Alt. Az.
28 Jun 2.8 21:52:24 10° S 21:56:30 88° E 22:00:37 10° N visible
29 Jun 3.2 21:56:04 10° SSW 22:00:08 68° W 22:04:15 10° N visible
30 Jun 3.8 21:59:51 10° SSW 22:03:49 49° W 22:07:49 10° N visible
01 Jul 4.4 22:03:43 10° SW 22:07:30 36° WNW 22:11:19 10° N visible
02 Jul 5.0 22:07:43 10° SW 22:11:13 27° WNW 22:14:44 10° NNW visible
03 Jul 5.4 22:11:51 10° WSW 22:14:56 20° WNW 22:18:04 10° NNW visible
04 Jul 5.8 22:16:11 10° WSW 22:18:42 16° WNW 22:21:13 10° NNW visible
05 Jul 6.0 22:20:55 10° W 22:22:28 12° WNW 22:24:02 10° NW visible
